Weather reports worldwide

Advertisment
Dunkerque, France (7010): temperature & dewpoint: 26.09.2020 00:00:00 - 02.10.2020 00:00:00 (CEST)Dunkerque, France (7010): wind speed & gusts: 26.09.2020 00:00:00 - 02.10.2020 00:00:00 (CEST)Dunkerque, France (7010): wind direction: 26.09.2020 00:00:00 - 02.10.2020 00:00:00 (CEST)Dunkerque, France (7010): reduced air pressure: 26.09.2020 00:00:00 - 02.10.2020 00:00:00 (CEST)Dunkerque, France (7010): visibility: 26.09.2020 00:00:00 - 02.10.2020 00:00:00 (CEST)Dunkerque, France (7010): precipitation: 26.09.2020 00:00:00 - 02.10.2020 00:00:00 (CEST)
Date & Time tt [°C] td [°C] ff [km/h] ff [kn] fx [km/h] fx [kn] dd ppp [hPa] vv [km] rr [mm]
02.10.2020 00:00:00 11,5 8,4 20 11 31 17 SSE 996,4 - 0,0
01.10.2020 23:00:00 11,3 8,3 17 9 23 12 SSE 997,3 - 0,0
01.10.2020 22:00:00 11,6 8,4 14 8 23 12 S 998,3 10 0,0
01.10.2020 21:00:00 11,7 8,5 16 8 25 14 SSW 998,4 10 0,0
01.10.2020 20:00:00 12,8 8,7 16 8 23 12 SSW 998,7 10 0,0
01.10.2020 19:00:00 13,8 8,8 14 8 35 19 SW 998,6 10 0,0
01.10.2020 18:00:00 15,4 7,7 21 12 41 22 SW 998,7 10 0,0
01.10.2020 17:00:00 15,6 9,7 21 12 45 25 WSW 998,9 12 0,0
01.10.2020 16:00:00 15,0 10,2 28 15 48 26 W 998,7 10 0,0
01.10.2020 15:00:00 14,2 11,2 32 18 53 28 W 998,2 10 0,0
01.10.2020 14:00:00 12,9 11,6 18 10 33 18 W 998,1 12 7,0
01.10.2020 13:00:00 13,4 12,3 20 11 36 19 W 997,6 10 2,6
01.10.2020 12:00:00 13,9 12,9 16 9 26 14 SW 997,5 8 0,6
01.10.2020 11:00:00 13,5 12,7 14 7 18 10 SSW 997,3 10 0,0
01.10.2020 10:00:00 13,2 12,6 4 2 22 12 SW 997,7 10 1,8
01.10.2020 09:00:00 13,8 13,0 14 8 37 20 SW 997,8 10 1,6
01.10.2020 08:00:00 14,3 13,5 22 12 35 19 S 998,0 20 0,4
01.10.2020 07:00:00 14,4 13,4 20 11 35 19 S 998,7 10 0,0
01.10.2020 06:00:00 14,6 13,5 24 13 36 19 S 999,6 10 0,0
01.10.2020 05:00:00 14,6 13,5 21 11 32 18 SSE 1000,3 - 0,0
01.10.2020 04:00:00 14,6 13,5 19 10 32 17 S 1001,6 - 0,6
01.10.2020 03:00:00 14,9 13,6 16 9 28 15 S 1002,7 - 0,6
01.10.2020 02:00:00 15,3 13,5 17 9 29 16 S 1003,4 20 0,0
01.10.2020 01:00:00 15,7 13,5 22 12 34 18 S 1004,2 - 0,0
01.10.2020 00:00:00 16,2 13,1 28 15 40 22 S 1004,5 - 0,0
30.09.2020 23:00:00 16,3 12,8 24 13 39 21 S 1005,5 10 0,0
30.09.2020 22:00:00 16,5 13,4 26 14 37 20 S 1006,0 10 0,0
30.09.2020 21:00:00 16,4 13,7 21 11 36 19 SSE 1006,8 10 0,0
30.09.2020 20:00:00 16,5 13,6 21 12 33 18 SSE 1007,1 12 0,0
30.09.2020 19:00:00 16,8 13,1 21 11 29 16 S 1007,9 10 0,0
30.09.2020 18:00:00 17,2 12,1 18 10 31 17 SSW 1008,6 10 0,0
30.09.2020 17:00:00 17,7 12,8 22 12 39 21 S 1009,2 12 0,0
30.09.2020 16:00:00 18,9 13,3 23 12 37 20 SSW 1009,7 10 0,0
30.09.2020 15:00:00 19,6 13,5 23 12 38 21 SSW 1010,0 10 0,0
30.09.2020 14:00:00 18,8 13,0 24 13 39 21 SSW 1010,8 10 0,0
30.09.2020 13:00:00 18,4 13,7 22 12 37 20 SSW 1011,3 10 0,0
30.09.2020 12:00:00 17,0 14,6 19 10 27 14 SSW 1011,8 10 0,0
30.09.2020 11:00:00 15,6 14,3 18 10 27 14 S 1012,5 12 0,0
30.09.2020 10:00:00 14,8 14,0 15 8 27 15 S 1013,1 10 0,0
30.09.2020 09:00:00 14,3 13,7 14 7 19 10 S 1013,2 10 0,0
30.09.2020 08:00:00 14,1 13,3 10 5 16 9 S 1013,3 10 0,0
30.09.2020 07:00:00 13,9 13,3 13 7 19 11 SSW 1013,4 10 0,0
30.09.2020 06:00:00 13,8 13,0 10 5 15 8 S 1013,6 10 0,0
30.09.2020 05:00:00 13,8 13,0 9 5 16 9 SSW 1014,3 - 0,0
30.09.2020 04:00:00 13,6 12,8 13 7 18 10 SSW 1014,9 - 0,0
30.09.2020 03:00:00 13,3 12,4 10 5 16 9 SSW 1015,2 - 0,0
30.09.2020 02:00:00 13,7 12,9 10 5 14 8 SSW 1015,5 - 0,0
30.09.2020 01:00:00 13,7 12,9 9 5 15 8 SSW 1016,1 - 0,0
30.09.2020 00:00:00 14,1 13,1 12 7 17 9 SSW 1016,1 - 0,0
29.09.2020 23:00:00 14,6 13,1 14 8 18 10 SSW 1016,6 15 0,0
29.09.2020 22:00:00 15,2 13,4 11 6 16 9 SSW 1016,6 10 0,0
29.09.2020 21:00:00 15,6 13,4 9 5 24 13 WSW 1016,4 10 0,0
29.09.2020 20:00:00 16,0 13,7 17 9 36 20 SW 1016,2 10 0,0
29.09.2020 19:00:00 17,3 13,6 20 11 36 19 SW 1015,8 10 0,0
29.09.2020 18:00:00 18,4 13,9 22 12 42 23 SW 1015,6 10 0,0
29.09.2020 17:00:00 18,9 14,2 17 9 37 20 SW 1015,4 15 0,0
29.09.2020 16:00:00 18,7 13,8 17 9 31 17 SW 1015,5 10 0,0
29.09.2020 15:00:00 18,7 15,4 16 9 30 16 SW 1015,7 10 0,0
29.09.2020 14:00:00 17,0 16,0 10 6 18 10 SSW 1016,0 2,0 0,0
29.09.2020 13:00:00 16,8 16,2 10 6 22 12 S 1016,1 9 0,0
29.09.2020 12:00:00 16,1 15,0 15 8 22 12 S 1016,2 7 0,0
29.09.2020 11:00:00 15,0 13,9 10 5 14 7 S 1016,1 3,8 0,0
29.09.2020 10:00:00 13,8 13,2 8 4 10 6 S 1015,9 8 0,0
29.09.2020 09:00:00 13,2 12,7 8 5 11 6 SSW 1015,6 7 0,0
29.09.2020 08:00:00 12,5 11,9 6 3 12 6 SSW 1015,3 5 0,0
29.09.2020 07:00:00 12,6 11,3 8 4 11 6 S 1015,0 6 0,0
29.09.2020 06:00:00 15,1 13,1 7 4 19 11 W 1014,9 7 0,0
29.09.2020 05:00:00 15,1 13,0 14 8 19 10 W 1014,6 15 0,0
29.09.2020 04:00:00 14,1 11,3 6 3 20 11 SSW 1014,8 - 0,0
29.09.2020 03:00:00 15,5 11,5 14 7 20 11 WNW 1014,5 - 0,0
29.09.2020 02:00:00 15,5 10,9 14 7 22 12 WNW 1014,3 15 0,0
29.09.2020 01:00:00 15,6 9,0 16 9 26 14 WNW 1014,4 - 0,0
29.09.2020 00:00:00 15,6 6,8 18 10 26 14 WNW 1014,5 - 0,0
28.09.2020 23:00:00 15,8 7,0 17 9 24 13 WNW 1014,2 - 0,0
28.09.2020 22:00:00 15,7 6,9 16 9 23 12 WNW 1013,9 10 0,0
28.09.2020 21:00:00 15,5 8,9 20 11 29 16 WNW 1013,6 10 0,0
28.09.2020 20:00:00 15,0 8,2 22 12 34 18 WNW 1013,1 10 0,0
28.09.2020 19:00:00 15,0 11,2 26 14 35 19 WNW 1012,5 10 0,0
28.09.2020 18:00:00 14,8 11,9 23 12 36 19 NW 1012,1 10 0,0
28.09.2020 17:00:00 14,4 11,9 26 14 40 21 WNW 1011,9 15 0,0
28.09.2020 16:00:00 14,4 12,4 26 14 40 22 WNW 1011,8 10 0,0
28.09.2020 15:00:00 14,4 12,6 26 14 41 22 NW 1011,7 10 0,0
28.09.2020 14:00:00 14,4 12,8 25 13 41 22 NW 1011,6 10 0,0
28.09.2020 13:00:00 14,3 13,0 28 15 40 22 NW 1011,3 10 0,0
28.09.2020 12:00:00 14,0 12,9 28 15 41 22 NW 1011,2 10 0,0
28.09.2020 11:00:00 14,3 13,3 29 15 43 23 NW 1010,7 6 0,0
28.09.2020 10:00:00 14,5 13,5 29 16 41 22 NNW 1010,5 10 0,0
28.09.2020 09:00:00 14,9 13,8 26 14 41 22 NNW 1010,0 10 0,0
28.09.2020 08:00:00 14,8 13,8 28 15 43 23 NNW 1009,8 6 0,0
28.09.2020 07:00:00 14,9 13,9 31 17 49 26 N 1009,4 9 0,4
28.09.2020 06:00:00 14,6 13,8 33 18 51 28 NNW 1009,2 10 0,0
28.09.2020 05:00:00 14,6 14,0 36 19 52 28 NNW 1009,3 6 0,0
28.09.2020 04:00:00 14,8 14,0 35 19 54 29 NNW 1009,3 - 0,0
28.09.2020 03:00:00 15,1 14,1 39 21 56 30 NNW 1009,3 - 0,0
28.09.2020 02:00:00 15,4 14,3 39 21 61 33 NNW 1009,2 - 0,0
28.09.2020 01:00:00 15,1 14,1 40 21 62 33 NNW 1009,2 - 0,0
28.09.2020 00:00:00 14,6 13,8 43 23 63 34 NNW 1009,2 - 1,0
27.09.2020 23:00:00 14,6 13,8 40 21 64 35 NNW 1009,3 6 0,4
27.09.2020 22:00:00 14,6 13,8 44 24 63 34 NNW 1009,0 10 0,0
27.09.2020 21:00:00 14,6 13,8 42 23 64 34 NNW 1009,0 8 0,0
27.09.2020 20:00:00 14,8 13,7 42 23 67 36 N 1008,6 15 0,0
27.09.2020 19:00:00 15,1 14,0 39 21 71 39 N 1008,1 10 0,0
27.09.2020 18:00:00 15,1 13,8 40 22 73 39 N 1007,5 10 0,0
27.09.2020 17:00:00 14,8 13,8 48 26 75 40 N 1007,0 10 0,0
27.09.2020 16:00:00 15,1 14,3 46 25 72 39 NNW 1006,5 10 0,0
27.09.2020 15:00:00 15,4 14,3 42 23 72 39 N 1006,3 10 0,0
27.09.2020 14:00:00 15,5 13,9 47 25 78 42 N 1005,7 3,7 0,0
27.09.2020 13:00:00 15,3 14,0 41 22 73 39 N 1005,1 4,9 0,0
27.09.2020 12:00:00 15,1 14,1 39 21 79 43 N 1005,0 10 0,2
27.09.2020 11:00:00 14,8 14,0 43 23 85 46 N 1004,3 7 0,0
27.09.2020 10:00:00 14,8 13,2 52 28 86 47 N 1003,8 5 0,0
27.09.2020 09:00:00 14,3 12,7 55 30 89 48 N 1003,1 7 0,0
27.09.2020 08:00:00 14,4 12,6 56 30 91 49 N 1003,0 7 0,0
27.09.2020 07:00:00 14,3 12,5 59 32 87 47 NNW 1002,8 9 0,0
27.09.2020 06:00:00 13,5 11,9 55 30 86 47 NNW 1003,3 7 0,2
27.09.2020 05:00:00 13,3 11,4 55 30 86 46 NNW 1003,8 7 0,2
27.09.2020 04:00:00 13,2 11,3 51 28 78 42 NNW 1004,3 - 1,4
27.09.2020 03:00:00 13,5 11,2 49 27 77 42 NNW 1004,8 - 0,2
27.09.2020 02:00:00 13,8 9,8 51 28 80 43 NNW 1005,3 - 0,0
27.09.2020 01:00:00 13,7 10,3 47 25 80 43 NNW 1005,7 - 0,0
27.09.2020 00:00:00 14,4 11,0 54 29 80 43 NNW 1005,9 - 0,0
26.09.2020 23:00:00 14,4 11,7 54 29 87 47 NNW 1005,6 - 0,8
26.09.2020 22:00:00 14,2 12,6 52 28 87 47 NNW 1005,6 10 0,0
26.09.2020 21:00:00 14,3 12,2 52 28 86 46 NNW 1004,9 10 1,4
26.09.2020 20:00:00 14,2 11,9 50 27 81 44 NNW 1004,9 7 1,2
26.09.2020 19:00:00 14,0 12,4 51 28 79 43 NNW 1004,6 9 4,5
26.09.2020 18:00:00 13,6 12,3 50 27 74 40 NNW 1004,6 10 0,8
26.09.2020 17:00:00 12,3 10,7 45 25 74 40 NW 1004,7 7 0,0
26.09.2020 16:00:00 12,6 10,7 53 29 77 42 NW 1004,9 10 0,0
26.09.2020 15:00:00 12,4 9,4 49 27 77 41 NW 1005,0 10 0,0
26.09.2020 14:00:00 11,8 8,8 45 25 75 41 NW 1005,1 10 0,0
26.09.2020 13:00:00 11,7 7,6 47 25 78 42 NW 1005,2 10 0,0
26.09.2020 12:00:00 11,5 7,6 49 27 77 42 NW 1005,4 10 0,0
26.09.2020 11:00:00 11,6 7,9 50 27 79 42 NW 1005,1 6 0,0
26.09.2020 10:00:00 11,2 7,3 50 27 84 45 NW 1004,8 10 0,0
26.09.2020 09:00:00 11,1 7,0 50 27 85 46 NW 1004,5 10 0,0
26.09.2020 08:00:00 11,7 7,8 54 29 85 46 NW 1004,1 10 0,0
26.09.2020 07:00:00 11,8 8,3 55 30 88 47 NW 1003,4 10 0,0
26.09.2020 06:00:00 11,5 8,0 54 29 93 50 NW 1003,2 10 0,0
26.09.2020 05:00:00 11,6 8,1 62 34 95 51 NW 1002,9 10 0,0
26.09.2020 04:00:00 11,9 8,2 60 33 95 51 WNW 1002,9 - 0,0
26.09.2020 03:00:00 12,5 8,4 61 33 94 51 NW 1002,7 - 0,0
26.09.2020 02:00:00 12,7 8,2 63 34 103 56 WNW 1002,8 - 0,0
26.09.2020 01:00:00 12,8 7,5 72 39 97 53 WNW 1002,5 - 0,0
26.09.2020 00:00:00 13,1 7,7 65 35 101 55 WNW 1002,6 - 0,0

tt = temperature
td = dewpoint
ff = wind speed
fx = gusts
dd = wind direction
ppp = reduced air pressure
vv = visibility
rr = precipitation

Next stations